Regional Weather Roundup
Issued by NWS

Home | Current Version | Previous Version | Text Only | Print | Product List | Glossary Off
Versions: 1 2 3 4 5 6 7 8 9 10 11 12 13 14 15 16 17 18 19 20 21 22 23 24 25 26 27 28 29 30 31 32 33 34 35 36 37 38 39 40 41 42 43 44 45 46 47 48 49 50

000
ASUS45 KSLC 180410
RWRUT

UTAH REGIONAL WEATHER ROUNDUP
NATIONAL WEATHER SERVICE SALT LAKE CITY UT
1000 PM MDT WED SEP 17 2014

UTZ001>011-023>025-180500-

NORTHERN UTAH

CITY           SKY/WX    TMP DP  RH WIND       PRES   REMARKS
HILL AFB       PTCLDY    78  42  28 E13       29.92F
LOGAN          CLEAR     72  47  40 S9        29.89S
OGDEN          PTCLDY    75  44  33 SE7       29.89S
PROVO AIRPORT  CLEAR     73  45  35 SE10      29.93S
SALT LAKE CITY PTCLDY    81  39  22 E12       29.88S
VERNAL         PTCLDY    62  42  47 W7        30.04R
WENDOVER       MOCLDY    81  37  21 SW6       29.85R
HEBER CITY     CLEAR     61  43  51 CALM      30.05R
WEST JORDAN    CLEAR     72  41  33 W3        29.93R

$$

UTZ012>022-026-027-180500-

SOUTHERN UTAH

CITY           SKY/WX    TMP DP  RH WIND       PRES   REMARKS
BRYCE CANYON   CLEAR     50  45  83 SW5       30.24R
CEDAR CITY     CLEAR     66  52  60 SE6       30.05S
MILFORD        CLEAR     73  47  39 SW14      29.98S
MOAB/CYNLANDS  CLEAR     75  46  35 SE13      29.96R
PRICE          CLEAR     72  35  25 NE10      30.07S
ST GEORGE      CLEAR     81  55  41 CALM      29.87R
KANAB            N/A     70  48  46 E7        30.06

$$

REGIONAL REPORTS     COLORADO/ARIZONA

CITY           SKY/WX    TMP DP  RH WIND       PRES   REMARKS
CRAIG, CO      CLEAR     54  42  64 CALM      30.13R
GRAND JUNCTION CLEAR     70  39  32 E3        29.98R
RIFLE          CLEAR     61  42  49 CALM      30.06R
MONTROSE       CLEAR     67  43  41 SE9       30.10R
CORTEZ         PTCLDY    54  52  93 E3        30.16R
PAGE, AZ       CLEAR     75  57  53 E5        29.99R
GRAND CANYON   CLEAR     56  46  69 CALM      30.17R
KINGMAN        CLEAR     73  61  65 S8        29.91S
FLAGSTAFF      PTCLDY    55  53  93 NE3       30.19S

$$

REGIONAL REPORTS    NEVADA/IDAHO/WYOMING

CITY           SKY/WX    TMP DP  RH WIND       PRES   REMARKS
LAS VEGAS, NV  CLEAR     91  56  30 S12       29.74S
ELY            CLEAR     63  47  55 S8        30.05S
ELKO           MOCLDY    77  41  27 SE9       29.88F
POCATELLO, ID  CLEAR     76  37  24 S10       29.87S
BURLEY         MOCLDY    68  54  60 SW12      29.83R
EVANSTON, WY   PTCLDY    63  40  42 S6        30.15S
ROCK SPRINGS   PTCLDY    65  35  33 SW6       30.14

$$


USA.gov is the U.S. government's official web portal to all federal, state and local government web resources and services.